TimeEDT,TemperatureF,Dew PointF,Humidity,Sea Level PressureIn,VisibilityMPH,Wind Direction,Wind SpeedMPH,Gust SpeedMPH,PrecipitationIn,Events,Conditions,WindDirDegrees,DateUTC
12:54 AM,46.0,44.1,93,30.12,10.0,Calm,Calm,-,N/A,,Clear,0,2014-04-10 04:54:00
1:54 AM,44.1,42.1,93,30.12,8.0,Calm,Calm,-,N/A,,Clear,0,2014-04-10 05:54:00
2:54 AM,46.0,43.0,89,30.14,8.0,Calm,Calm,-,N/A,,Clear,0,2014-04-10 06:54:00
3:54 AM,45.0,43.0,93,30.14,6.0,Calm,Calm,-,N/A,,Clear,0,2014-04-10 07:54:00
4:54 AM,44.1,42.1,93,30.17,7.0,Calm,Calm,-,N/A,,Partly Cloudy,0,2014-04-10 08:54:00
5:54 AM,42.1,39.9,92,30.19,4.0,Calm,Calm,-,N/A,,Partly Cloudy,0,2014-04-10 09:54:00
6:43 AM,42.1,41.0,96,30.21,2.0,Calm,Calm,-,N/A,,Clear,0,2014-04-10 10:43:00
6:54 AM,42.1,41.0,96,30.22,2.0,Calm,Calm,-,N/A,,Clear,0,2014-04-10 10:54:00
7:11 AM,41.0,39.9,96,30.23,1.5,Calm,Calm,-,N/A,,Clear,0,2014-04-10 11:11:00
7:18 AM,42.1,41.0,96,30.23,2.0,Calm,Calm,-,N/A,,Clear,0,2014-04-10 11:18:00
7:32 AM,43.0,42.1,97,30.24,3.0,North,-9999.0,-,N/A,,Clear,0,2014-04-10 11:32:00
7:54 AM,46.0,44.1,93,30.25,5.0,North,-9999.0,-,N/A,,Mist,0,2014-04-10 11:54:00
8:54 AM,55.0,48.9,80,30.26,7.0,Calm,Calm,-,N/A,,Clear,0,2014-04-10 12:54:00
9:54 AM,63.0,45.0,52,30.27,10.0,ESE,4.6,-,N/A,,Clear,120,2014-04-10 13:54:00
10:54 AM,66.9,41.0,39,30.28,10.0,ESE,8.1,-,N/A,,Clear,110,2014-04-10 14:54:00
11:54 AM,70.0,43.0,38,30.26,10.0,Variable,6.9,-,N/A,,Clear,0,2014-04-10 15:54:00
12:54 PM,71.1,43.0,36,30.23,10.0,WSW,6.9,16.1,N/A,,Clear,250,2014-04-10 16:54:00
1:54 PM,73.0,44.1,35,30.22,10.0,South,11.5,18.4,N/A,,Clear,170,2014-04-10 17:54:00
2:54 PM,73.9,42.1,32,30.20,10.0,SW,10.4,20.7,N/A,,Clear,230,2014-04-10 18:54:00
3:54 PM,73.9,41.0,30,30.17,10.0,SSW,10.4,17.3,N/A,,Clear,210,2014-04-10 19:54:00
4:54 PM,75.0,39.9,28,30.16,10.0,South,9.2,19.6,N/A,,Clear,190,2014-04-10 20:54:00
5:54 PM,73.9,39.9,29,30.16,10.0,SW,8.1,-,N/A,,Clear,220,2014-04-10 21:54:00
6:54 PM,71.1,46.9,42,30.17,10.0,Variable,5.8,-,N/A,,Clear,0,2014-04-10 22:54:00
7:54 PM,66.9,46.0,47,30.17,10.0,SSE,5.8,-,N/A,,Clear,150,2014-04-10 23:54:00
8:54 PM,64.0,46.0,52,30.19,10.0,Variable,4.6,-,N/A,,Clear,0,2014-04-11 00:54:00
9:54 PM,61.0,45.0,56,30.22,10.0,Calm,Calm,-,N/A,,Clear,0,2014-04-11 01:54:00
10:54 PM,60.1,41.0,49,30.22,10.0,South,4.6,-,N/A,,Clear,180,2014-04-11 02:54:00
11:54 PM,60.1,39.9,47,30.22,10.0,South,6.9,-,N/A,,Clear,190,2014-04-11 03:54:00